Location: Drummondville
(45.8830°N, 72.4830°W)
Time: 11:06:41
(UTC-05:00)

N. Korean satellite - Pass Details

Date: 11 November 2017
Orbit: 460 x 515 km, 97.2° (Epoch: 18 November)

Event Time Altitude Azimuth Distance (km) Brightness Sun altitude
Rises 16:51:00 0° 132° (SE) 2,478 9.9 -5.4°
Reaches altitude 10° 16:53:24 10° 115° (ESE) 1,613 8.8 -5.8°
Maximum altitude 16:55:57 20° 67° (ENE) 1,149 7.8 -6.2°
Drops below altitude 10° 16:58:32 10° 19° (NNE) 1,635 8.9 -6.6°
Sets 17:00:59 0° 2° (N) 2,527 10.0 -7.0°
